User: anonymous
Location: Black Swamp Observatory
(41.3920°N, 84.1250°W)
Time: 16:18:56
(UTC-04:00)
Language:

MaSat-1 - Orbit

View from above orbital plane
View from above orbital plane
View from above satellite
View from above satellite

Ground track
Ground track

The orbit data is extracted from the following two-line orbital elements,

1 38081U 12006E   14274.54053964  .00240541  15945-4  21115-2 0  4668
2 38081 069.4553 067.0121 0301401 200.2859 224.6666 15.27908077139603
Epoch (UTC): 01 October 2014 12:58:22
Eccentricity: 0.0301401
inclination: 69.4553°
perigee height: 275 km
apogee height: 689 km
right ascension of ascending node: 67.0121°
argument of perigee: 200.2859°
revolutions per day: 15.27908077
mean anomaly at epoch: 224.6666°
orbit number at epoch: 13960

The dashed part of the orbit path shows where the satellite is in the earth's shadow,  

DLR